Regional Weather Roundup
Issued by NWS Jackson, KY

Home | Current Version | Previous Version | Text Only | Print | Product List | Glossary Off
Versions: 1 2 3 4 5 6 7 8 9 10 11 12 13 14 15 16 17 18 19 20 21 22 23 24 25 26 27 28 29 30 31 32 33 34 35 36 37 38 39 40 41 42 43 44 45 46 47 48 49 50

000
ASUS43 KJKL 291810
RWRJKL

EAST KENTUCKY HOURLY WEATHER ROUNDUP
NATIONAL WEATHER SERVICE JACKSON KY
100 PM EST THU JAN 29 2015

NOTE: "FAIR" INDICATES FEW OR NO CLOUDS BELOW 12,000 FEET WITH
NO SIGNIFICANT WEATHER AND/OR OBSTRUCTIONS TO VISIBILITY.

* THESE REPORTS ARE NOT UNDER NWS QUALITY CONTROL AND MAY NOT
  REPORT WEATHER SUCH AS PRECIPITATION AND FOG.

KYZ079-080-083-085-087-088-110-112-115-119-120-291900
...EASTERN KENTUCKY...

CITY           SKY/WX    TMP DP  RH WIND       PRES   REMARKS
JACKSON        CLOUDY    51  37  58 VRB6G17   29.93F
6HR MIN TEMP:  35; 6HR MAX TEMP:  51; 6HR PCP:  0.07;

LONDON         SUNNY     54  32  43 SW17G32   29.97F
6HR MIN TEMP:  41; 6HR MAX TEMP:  54; 6HR PCP:  0.09;

SOMERSET*      CLOUDY    54  36  50 SW16G30   29.98F
MONTICELLO*    PTSUNNY   58  38  47 SW16G28   30.01F
6HR MIN TEMP:  43; 6HR MAX TEMP:  58; 6HR PCP:  0.01;

MIDDLESBORO*   SUNNY     48  33  55 S8G18     30.04F
6HR MIN TEMP:  36; 6HR MAX TEMP:  48; 6HR PCP:  0.01;

HARLAN APT*    MOCLDY    52  32  46 SW10G25   30.01F
BLACK MTN*       N/A     32  28  86 S12         N/A  WCI  23
PIKEVILLE APT* PTSUNNY   48  37  66 S8        29.94F
BIG SANDY*     CLEAR     49  37  62 SW15G22   29.93F
6HR MIN TEMP:  36; 6HR MAX TEMP:  49;

MOREHEAD APT*  CLOUDY    50  36  57 SW18G26   29.91F
$$

KYZ035-036-041-042-044-050-067-078-099-291900
...CENTRAL KENTUCKY...

CITY           SKY/WX    TMP DP  RH WIND       PRES   REMARKS
MT STERLING*   CLOUDY    52  37  58 W15G23    29.90F
FLEMING/MASON* CLOUDY    49  38  66 SW16G25   29.86F
DANVILLE*      CLOUDY    54  37  54 W18G29    29.94F
RICHMOND*      CLOUDY    54  36  50 SW21G26   29.93F
LEXINGTON      CLOUDY    52  38  58 SW20G33   29.89F
6HR MIN TEMP:  36; 6HR MAX TEMP:  52; 6HR PCP:  0.04;

FRANKFORT      CLOUDY    53  38  56 SW22G32   29.88F
6HR MIN TEMP:  40; 6HR MAX TEMP:  53; 6HR PCP:  0.02;

$$

KYZ091>093-OHZ055-061-077-WVZ005-015-034-035-042-291900
...SOUTHERN OHIO/WEST VIRGINIA...

CITY           SKY/WX    TMP DP  RH WIND       PRES   REMARKS
COVINGTON      CLOUDY    48  37  66 W23G37    29.83F
COLUMBUS       CLOUDY    39  31  72 S8        29.81F WCI  33
DAYTON         CLOUDY    44  35  70 SW14      29.78F
WILMINGTON     CLOUDY    45  35  68 SW16      29.79F
HUNTINGTON     SUNNY     48  37  65 S15G22    29.88F
CHARLESTON     CLOUDY    44  34  67 S12G21    29.91F
PINEVILLE*     CLOUDY    37  37 100 MISG      30.04F FOG
BECKLEY        LGT RAIN  36  30  79 S10       29.97F WCI  28
BLUEFIELD      CLOUDY    41  26  55 S9        30.01F
$$

VAZ002-007-008-TNZ017-027-036-066-071-291900
...SOUTHWEST VIRGINIA/EAST TENNESSEE...

CITY           SKY/WX    TMP DP  RH WIND       PRES   REMARKS
WISE*          PTSUNNY   45  30  57 SW16G23   30.00F
JONESVILLE*    MOCLDY    39  32  75 CALM      30.09F
ABINGDON*      CLOUDY    38  29  72 S3        30.06F
BRISTOL        CLOUDY    36  29  75 E7        30.08F WCI  30
KNOXVILLE      MOSUNNY   44  35  70 W3        30.08F
OAK RIDGE      SUNNY     47  34  60 W9G16     30.10F
CROSSVILLE     SUNNY     50  33  52 S9G20     30.05F
NASHVILLE      MOSUNNY   62  38  40 SW14G21   30.03F
$$

...KEY TO REMARKS...
VSB - VISIBILITY IN MILES
WCI - WIND CHILL INDEX
HX  - HEAT INDEX

$$


USA.gov is the U.S. government's official web portal to all federal, state and local government web resources and services.